Date String (YYYY-MM-DD hh:mm:ss) UTC,Instrument flags,Ambient pressure (hPa),Sample flow (lpm),Bypass flow (lpm),Sample temperature (°C),Ambient temperature (°C),ASC tube jacket temperature (°C),LED temperature (°C),Box temperature (°C),Sample RH (%),Mass concentration (μg/m³),Mass concentration (μg/m³)
DateTimeUTC,F1_M11,P_M11,Q1_M11,Q2_M11,T1_M11,T2_M11,T3_M11,T4_M11,T5_M11,U1_M11,X0_M11,X2_M11
2021-08-19 14:00:00,,0826.1,5.00,0.00,29.6,27.4,00.0,38.8,31.2,32.4,0014.01,0008.70
2021-08-19 14:01:00,,0825.8,4.99,0.00,29.6,27.7,00.0,38.8,31.3,32.1,0013.88,0008.75
2021-08-19 14:02:00,,0825.8,5.01,0.00,29.6,27.9,00.0,38.8,31.4,32.1,0013.97,0008.80
2021-08-19 14:03:00,,0825.9,5.00,0.00,29.7,28.1,00.0,38.8,31.4,32.1,0014.10,0008.83
2021-08-19 14:04:00,,0825.9,5.00,0.00,29.7,28.3,00.0,38.8,31.5,32.1,0014.25,0008.81
2021-08-19 14:05:00,,0825.9,4.99,0.00,29.7,28.5,00.0,38.8,31.5,32.0,0014.22,0008.70
2021-08-19 14:06:00,,0825.8,4.99,0.00,29.7,28.6,00.0,38.8,31.6,31.9,0014.61,0008.65
2021-08-19 14:07:00,,0826.0,5.01,0.00,29.8,28.7,00.0,38.8,31.6,32.1,0014.93,0008.66
2021-08-19 14:08:00,,0825.9,4.99,0.00,29.8,28.8,00.0,38.9,31.7,32.2,0014.84,0008.72
2021-08-19 14:09:00,,0825.7,5.02,0.00,29.8,28.9,00.0,38.9,31.7,32.0,0015.28,0008.72
2021-08-19 14:10:00,,0825.7,4.99,0.00,29.9,28.9,00.0,38.9,31.7,31.8,0015.89,0008.72
2021-08-19 14:11:00,,0826.1,5.01,0.00,29.9,29.0,00.0,38.9,31.7,31.8,0015.97,0008.69
2021-08-19 14:12:00,,0825.8,4.99,0.00,29.9,29.0,00.0,38.9,31.8,31.7,0016.41,0008.62
2021-08-19 14:13:00,,0826.2,4.99,0.00,30.0,29.1,00.0,38.9,31.8,31.8,0016.27,0008.56
2021-08-19 14:14:00,,0825.9,5.01,0.00,30.0,29.1,00.0,39.0,31.8,31.5,0016.09,0008.54
2021-08-19 14:15:00,,0825.9,5.00,0.00,29.9,27.8,00.0,39.0,31.5,31.7,0015.90,0008.57
2021-08-19 14:16:00,,0826.0,4.98,0.00,29.8,26.1,00.0,38.9,31.1,31.9,0015.73,0008.59
2021-08-19 14:17:00,,0825.7,5.01,0.00,29.6,25.6,00.0,38.9,30.9,32.0,0015.68,0008.67
2021-08-19 14:18:00,,0825.7,5.00,0.00,29.5,26.0,00.0,38.8,31.0,32.2,0015.65,0008.66
2021-08-19 14:19:00,,0825.7,4.99,0.00,29.5,26.5,00.0,38.8,31.0,32.4,0015.75,0008.67
2021-08-19 14:20:00,,0825.6,4.99,0.00,29.4,26.9,00.0,38.7,31.1,32.7,0014.96,0008.71
2021-08-19 14:21:00,,0825.6,5.00,0.00,29.5,27.3,00.0,38.7,31.1,33.1,0014.54,0008.79
2021-08-19 14:22:00,,0825.6,5.01,0.00,29.5,27.6,00.0,38.7,31.2,32.7,0014.31,0008.79
2021-08-19 14:23:00,,0825.6,4.99,0.00,29.5,27.8,00.0,38.7,31.3,32.6,0013.97,0008.89
2021-08-19 14:24:00,,0825.7,5.01,0.00,29.5,28.0,00.0,38.7,31.3,32.6,0014.05,0008.93
2021-08-19 14:25:00,,0825.7,4.99,0.00,29.5,28.2,00.0,38.7,31.3,32.6,0014.22,0008.98
2021-08-19 14:26:00,,0825.7,5.00,0.00,29.6,28.4,00.0,38.7,31.4,32.5,0014.34,0009.05
2021-08-19 14:27:00,,0825.7,5.01,0.00,29.6,28.5,00.0,38.7,31.4,32.6,0014.44,0009.09
2021-08-19 14:28:00,,0825.7,4.99,0.00,29.6,28.6,00.0,38.7,31.5,32.7,0014.11,0009.10
2021-08-19 14:29:00,,0825.7,5.01,0.00,29.7,28.7,00.0,38.7,31.5,33.0,0014.20,0009.26
2021-08-19 14:30:00,,0825.7,4.99,0.00,29.7,28.8,00.0,38.7,31.6,32.7,0014.58,0009.29
2021-08-19 14:31:00,,0825.7,5.01,0.00,29.8,28.8,00.0,38.8,31.6,32.5,0015.05,0009.33
2021-08-19 14:32:00,,0825.7,5.00,0.00,29.8,28.9,00.0,38.8,31.7,32.5,0015.20,0009.36
2021-08-19 14:33:00,,0825.7,5.00,0.00,29.8,29.0,00.0,38.8,31.7,32.5,0015.35,0009.45
2021-08-19 14:34:00,,0825.7,5.00,0.00,29.9,29.0,00.0,38.8,31.7,32.1,0015.29,0009.48
2021-08-19 14:35:00,,0825.7,5.01,0.00,29.9,29.1,00.0,38.9,31.8,32.2,0015.72,0009.52
2021-08-19 14:36:00,,0825.7,4.99,0.00,29.9,29.1,00.0,38.9,31.8,32.4,0016.10,0009.54
2021-08-19 14:37:00,,0825.7,5.00,0.00,30.0,29.2,00.0,38.9,31.9,32.3,0016.19,0009.58
2021-08-19 14:38:00,,0825.8,5.00,0.00,30.0,29.2,00.0,38.9,31.9,32.7,0016.72,0009.66
2021-08-19 14:39:00,,0825.7,4.99,0.00,30.0,29.2,00.0,39.0,31.9,32.3,0017.24,0009.73
2021-08-19 14:40:00,,0825.7,5.00,0.00,30.1,29.3,00.0,39.0,32.0,32.1,0017.12,0009.70
2021-08-19 14:41:00,,0825.9,5.00,0.00,30.1,29.3,00.0,39.0,32.0,32.4,0016.99,0009.74
2021-08-19 14:42:00,,0825.8,5.01,0.00,30.1,29.2,00.0,39.1,32.0,32.2,0017.29,0009.81
2021-08-19 14:43:00,,0825.8,5.00,0.00,30.1,27.6,00.0,39.0,31.6,32.4,0017.48,0009.78
2021-08-19 14:44:00,,0825.8,4.99,0.00,29.9,26.2,00.0,39.0,31.1,32.7,0018.23,0009.82
2021-08-19 14:45:00,,0825.9,5.02,0.00,29.8,26.0,00.0,39.0,31.0,33.3,0018.47,0009.88
2021-08-19 14:46:00,,0826.1,5.00,0.00,29.7,26.5,00.0,38.9,31.1,33.3,0018.21,0009.95
2021-08-19 14:47:00,,0826.3,5.00,0.00,29.6,26.9,00.0,38.9,31.2,33.5,0018.09,0010.08
2021-08-19 14:48:00,,0826.1,4.99,0.00,29.6,27.3,00.0,38.9,31.3,33.5,0018.49,0010.20
2021-08-19 14:49:00,,0826.0,5.00,0.00,29.6,27.6,00.0,38.8,31.3,33.6,0019.01,0010.34
2021-08-19 14:50:00,,0826.2,5.01,0.00,29.7,27.9,00.0,38.8,31.4,33.3,0019.86,0010.46
2021-08-19 14:51:00,,0826.0,5.00,0.00,29.7,28.1,00.0,38.8,31.5,33.3,0020.55,0010.55
2021-08-19 14:52:00,,0826.0,5.00,0.00,29.7,28.3,00.0,38.8,31.5,33.3,0021.31,0010.57
2021-08-19 14:53:00,,0826.2,5.00,0.00,29.7,28.5,00.0,38.9,31.6,33.6,0021.12,0010.58
2021-08-19 14:54:00,,0825.9,5.01,0.00,29.8,28.6,00.0,38.9,31.6,33.7,0020.95,0010.71
2021-08-19 14:55:00,,0826.1,5.00,0.00,29.8,28.7,00.0,38.9,31.7,33.7,0020.31,0010.76
2021-08-19 14:56:00,,0825.8,5.00,0.00,29.9,28.8,00.0,38.9,31.7,33.3,0020.60,0010.80
2021-08-19 14:57:00,,0825.9,5.00,0.00,29.9,28.9,00.0,38.9,31.8,33.2,0022.34,0010.89
2021-08-19 14:58:00,,0825.8,5.00,0.00,29.9,29.0,00.0,38.9,31.8,33.2,0022.66,0010.91
2021-08-19 14:59:00,,0825.9,5.00,0.00,30.0,29.0,00.0,39.0,31.8,33.2,0022.85,0010.98
